Location: Columbia
(38.9520°N, 92.3340°W)
Time: 17:27:14
(UTC-05:00)

Iridium 52 - Visible Passes

Search period start: 02 August 2015 00:00
Search period end: 12 August 2015 00:00
Orbit: 776 x 779 km, 86.4° (Epoch: 02 August)

Date Brightness Start Highest point End Pass type
(mag) Time Alt. Az. Time Alt. Az. Time Alt. Az.
02 Aug 8.1 00:19:35 17° W 00:20:40 18° WNW 00:24:01 10° NW visible
02 Aug 7.1 22:05:30 26° E 22:06:10 27° E 22:10:32 10° NNE visible
02 Aug 7.3 23:45:58 30° W 23:46:49 32° W 23:51:26 10° NNW visible
03 Aug 7.8 21:31:52 14° E 21:32:53 14° E 21:35:45 10° NE visible
03 Aug 6.4 23:12:19 53° SW 23:13:08 60° W 23:18:18 10° N visible
04 Aug 5.9 22:38:40 58° SSE 22:39:35 73° E 22:44:49 10° N visible
05 Aug 8.6 00:19:07 10° W 00:21:03 12° WNW 00:22:46 10° NW visible
05 Aug 6.6 22:05:00 34° ESE 22:06:09 38° E 22:11:00 10° NNE visible
05 Aug 7.9 23:45:27 19° WSW 23:47:05 22° WNW 23:51:03 10° NNW visible
06 Aug 7.4 21:31:18 18° ESE 21:32:49 21° E 21:36:43 10° NNE visible
06 Aug 7.1 23:11:46 33° WSW 23:13:18 41° W 23:18:12 10° NNW visible
07 Aug 8.0 20:58:22 10° E 20:59:33 11° ENE 21:01:05 10° ENE visible
07 Aug 6.0 22:38:03 45° SSW 22:39:40 77° W 22:44:55 10° N visible
08 Aug 6.1 22:04:19 36° SSE 22:06:11 57° E 22:11:18 10° N visible
08 Aug 8.5 23:44:45 11° WSW 23:47:25 15° WNW 23:50:19 10° NW visible
09 Aug 6.9 21:30:33 22° SE 21:32:46 30° E 21:37:20 10° NNE visible
09 Aug 7.7 23:11:00 20° WSW 23:13:31 28° W 23:17:56 10° NNW visible
10 Aug 7.6 20:56:46 11° ESE 20:59:27 16° E 21:02:45 10° NE visible
10 Aug 6.7 22:37:12 27° SSW 22:39:47 52° W 22:44:53 10° N visible
11 Aug 5.9 22:03:23 28° S 22:06:13 83° E 22:11:28 10° N visible
11 Aug 8.9 23:47:01 10° WNW 23:47:47 10° WNW 23:48:11 10° WNW visible
